Powrót do katalogu

CZ-4C DEB

AktywnyPO
NORAD 43409·DEBRIS·🇨🇳 China

Wystrzelony Sep 23, 2013 z Taiyuan Satellite Launch Center

Loading…

Następne Przeloty (najbliższe 24 godziny)

TLE

ŚwieżeSource: Space-Track

Epoka: Sep 14, 2026, 05:28 UTC

1 43409U 13052D   26257.22803483  .00000156  00000-0  15666-3 0  9992
2 43409  98.7811 358.9542 0236015  96.6692 266.1381 13.78127320643528

Śledź CZ-4C DEB w czasie rzeczywistym z AllMySat

Download on the App Store